Change the Weather History Date:

Thursday, December 6, 2012

  Actual Average Record
Temperature  
Mean Temperature 48 °F 29 °F  
Max Temperature 52 °F 37 °F 69 °F (1939)
Min Temperature 44 °F 21 °F -8 °F (1882)
Degree Days  
Heating Degree Days 17 36  
Month to date heating degree days 104 211  
Since 1 July heating degree days 1201 1469  
Cooling Degree Days 0 0  
Month to date cooling degree days 0 0  
Year to date cooling degree days 1613 1066  
Moisture  
Dew Point 35 °F    
Average Humidity 60    
Maximum Humidity 70    
Minimum Humidity 50    
Precipitation  
Precipitation T in 0.05 in 1.43 in (1994)
Month to date precipitation T 0.32  
Year to date precipitation 24.36 34.92  
Snow  
Snow 0.00 in 0.20 in 7.50 in (1994)
Month to date snowfall 0.0 1.6  
Since 1 July snowfall T 4.5  
Snow Depth 0.00 in    
Sea Level Pressure  
Sea Level Pressure 29.95 in    
Wind  
Wind Speed 9 mph (WSW)    
Max Wind Speed 16 mph    
Max Gust Speed 21 mph    
Visibility 10 miles    
Events Rain    
T = Trace of Precipitation, MM = Missing Value Source: NWS Daily Summary

Daily Weather History Graph

Daily Weather History Graph

Search for Another Location

Airport or City:

Trip Planner

Search our weather history database for the weather conditions in past years. The results will help you decide how hot, cold, wet, or windy it might be!

Date:

Astronomy

Dec. 06, 2012 Rise Set
Actual Time 7:27 AM CST 4:44 PM CST
Civil Twilight 6:56 AM CST 5:15 PM CST
Nautical Twilight 6:21 AM CST 5:50 PM CST
Astronomical Twilight 5:47 AM CST 6:24 PM CST
Moon No Moon Rise 12:15 PM CST (12/6)
Length of Visible Light 10h 19m
Length of Day
9h 17m
Waning Gibbous, 49% of the Moon is Illuminated
Dec 6
Waning Gibbous
Dec 13
New
Dec 19
First Quarter
Dec 28
Full
Jan 4
Last Quarter

Hourly Weather History & Observations

Time (CST) Temp. Windchill Dew Point Humidity Pressure Visibility Wind Dir Wind Speed Gust Speed Precip Events Conditions
12:54 AM 46.9 °F - 34.0 °F 61% 30.01 in 10.0 mi South 9.2 mph - N/A   Overcast
1:54 AM 46.9 °F - 34.0 °F 61% 29.98 in 10.0 mi SSE 12.7 mph - N/A   Overcast
2:54 AM 46.9 °F - 34.0 °F 61% 29.96 in 10.0 mi SSE 13.8 mph - N/A   Overcast
3:54 AM 46.9 °F - 34.0 °F 61% 29.95 in 10.0 mi South 10.4 mph - N/A   Overcast
4:54 AM 46.0 °F 41.0 °F 33.1 °F 61% 29.94 in 10.0 mi South 10.4 mph - N/A   Overcast
5:54 AM 46.9 °F - 32.0 °F 56% 29.93 in 10.0 mi South 11.5 mph - N/A   Overcast
6:54 AM 46.9 °F - 32.0 °F 56% 29.93 in 10.0 mi South 10.4 mph - N/A   Overcast
7:54 AM 48.0 °F - 32.0 °F 54% 29.93 in 10.0 mi SSW 13.8 mph - N/A   Overcast
8:54 AM 48.0 °F - 32.0 °F 54% 29.94 in 10.0 mi SSW 10.4 mph - N/A   Overcast
9:54 AM 48.0 °F - 33.1 °F 56% 29.93 in 10.0 mi SSW 10.4 mph - N/A   Overcast
10:54 AM 48.9 °F - 34.0 °F 56% 29.93 in 10.0 mi SW 5.8 mph - N/A   Overcast
11:54 AM 51.1 °F - 36.0 °F 56% 29.91 in 10.0 mi SW 11.5 mph - N/A   Overcast
12:54 PM 52.0 °F - 34.0 °F 50% 29.90 in 10.0 mi West 12.7 mph - N/A   Overcast
1:54 PM 51.1 °F - 34.0 °F 52% 29.90 in 10.0 mi WNW 9.2 mph - N/A   Overcast
2:54 PM 48.9 °F - 34.0 °F 56% 29.91 in 10.0 mi NNW 8.1 mph - 0.00 in Rain Light Rain
3:54 PM 46.9 °F - 37.0 °F 68% 29.92 in 10.0 mi NNW 8.1 mph - 0.00 in   Overcast
4:54 PM 46.0 °F 44.8 °F 37.9 °F 73% 29.95 in 10.0 mi NW 3.5 mph - 0.00 in Rain Light Rain
5:54 PM 46.0 °F 43.9 °F 39.9 °F 79% 29.96 in 10.0 mi NNW 4.6 mph - 0.00 in Rain Light Rain
6:54 PM 44.6 °F 40.2 °F 37.4 °F 76% 29.94 in 10.0 mi North 8.1 mph - N/A   Overcast
7:54 PM 45.0 °F 41.2 °F 36.0 °F 71% 29.96 in 10.0 mi North 6.9 mph - N/A   Overcast
8:54 PM 45.0 °F 41.8 °F 36.0 °F 71% 29.98 in 10.0 mi North 5.8 mph - N/A   Overcast
9:54 PM 45.0 °F 42.6 °F 35.1 °F 68% 29.99 in 10.0 mi North 4.6 mph - N/A   Overcast
10:54 PM 44.1 °F 40.8 °F 34.0 °F 68% 29.99 in 10.0 mi NNE 5.8 mph - N/A   Overcast
11:54 PM 44.1 °F 41.5 °F 34.0 °F 68% 29.99 in 10.0 mi North 4.6 mph - N/A   Overcast